[[{"header":{"parameterUnit":"m.s-1","parameterCategory":1,"la1":30.2992,"la2":30.254,"lo1":-89.0895,"lo2":-89.0443,"dy":0.0025,"dx":0.0025,"nx":19,"ny":19,"refTime":"2026-04-03T03:00:00:Z","depth":0,"parameterNumber":2,"parameterNumberName":"U-component_of_WINDS"},"data":[0,0,0,-4.1668,-4.1671,-4.184,-4.1841,-4.2055,-4.2057,0,0,0,0,0,0,0,0,0,0,0,-4.1616,-4.1617,-4.1667,-4.1672,-4.184,-4.1841,-4.2055,-4.2057,0,0,0,0,0,0,0,0,0,0,0,-4.1615,-4.1617,-4.1619,-4.1672,-4.184,-4.1841,-4.2054,-4.1927,0,0,0,0,0,0,0,0,0,0,-4.1764,-4.1715,-4.1617,-4.1619,-4.1673,-4.184,-4.1841,-4.1921,-4.1935,-4.1977,0,-4.2014,0,-4.2039,-4.2071,-4.2072,0,0,0,-4.1673,-4.1703,-4.175,-4.1619,-4.1675,-4.184,-4.1764,-4.1929,-4.1945,-4.1996,-4.2017,-4.2025,-4.2042,-4.2072,-4.2073,-4.2312,-4.2313,0,0,-4.1663,-4.1646,-4.1739,-4.176,-4.1734,-4.1759,-4.177,-4.1939,-4.1961,-4.2018,-4.203,-4.2046,-4.2074,-4.2075,-4.2311,-4.2312,0,0,0,-4.1636,-4.1639,-4.1682,-4.1751,-4.1782,-4.1764,-4.1776,-4.1953,-4.1969,-4.2033,-4.2049,-4.2075,-4.2078,-4.2309,-4.2311,-4.2344,0,0,0,-4.163,-4.1623,-4.1678,-4.1669,-4.1779,-4.187,-4.1787,-4.1957,-4.1977,-4.2047,-4.2075,-4.208,-4.2308,-4.231,-4.2341,-4.2363,0,0,0,-4.1606,-4.162,-4.1644,-4.1667,-4.1739,-4.1867,-4.1893,-4.1962,-4.1987,-4.2072,-4.208,-4.2308,-4.231,-4.2338,-4.2358,-4.2419,0,0,0,-4.1574,-4.1672,-4.1644,-4.176,-4.1738,-4.1887,-4.1892,-4.2004,-4.2082,-4.2076,-4.2308,-4.2311,-4.2337,-4.2355,-4.2415,-4.2465,-4.2485,0,0,-4.1688,-4.1685,-4.1755,-4.1735,-4.1884,-4.1863,-4.2018,-4.2106,-4.2131,-4.225,-4.2256,-4.2342,-4.2357,-4.2418,-4.2606,-4.2621,0,0,0,-4.1785,-4.1834,-4.1878,-4.195,-4.202,-4.2081,-4.2148,-4.2181,-4.2282,-4.2189,-4.2383,-4.2392,-4.2429,-4.2453,-4.2466,-4.2498,-4.2322,-4.2322,-4.2322,-4.1918,-4.1945,-4.2061,-4.2108,-4.2179,-4.2247,-4.2306,-4.2362,-4.2369,-4.2414,-4.2449,-4.2559,-4.2588,-4.2597,-4.263,-4.248,-4.248,-4.248,-4.248,-4.2085,-4.2158,-4.2166,-4.228,-4.2308,-4.2406,-4.2476,-4.2477,-4.2572,-4.2535,-4.2569,-4.2524,-4.2614,-4.2643,-4.2483,-4.2482,-4.2482,-4.2482,-4.2481,-4.2173,-4.2213,-4.2251,-4.2359,-4.244,-4.2486,-4.2576,-4.2599,-4.2621,-4.2655,-4.2693,-4.2692,-4.2693,-4.2672,-4.2672,-4.2673,-4.2673,-4.2673,-4.2673,-4.2248,-4.2291,-4.2364,-4.2447,-4.2496,-4.2565,-4.2636,-4.2686,-4.2747,-4.2756,-4.2757,-4.2757,-4.2618,-4.2581,-4.2679,-4.2678,-4.2678,-4.2677,-4.2677,-4.2403,-4.2372,-4.2484,-4.2534,-4.2634,-4.2712,-4.2741,-4.2841,-4.2886,-4.293,-4.2925,-4.2819,-4.2818,-4.2808,-4.2777,-4.292,-4.292,-4.292,-4.292,-4.2476,-4.2478,-4.2598,-4.2676,-4.2756,-4.2794,-4.2921,-4.2977,-4.3031,-4.306,-4.3044,-4.3006,-4.2995,-4.3,-4.2986,-4.2957,-4.3143,-4.3143,-4.3143,-4.2572,-4.2583,-4.2685,-4.2737,-4.2817,-4.2885,-4.3005,-4.3095,-4.3149,-4.3153,-4.3083,-4.3074,-4.3014,-4.2993,-4.2991,-4.2969,-4.2917,0,0]},{"header":{"parameterUnit":"m.s-1","parameterCategory":1,"la1":30.2992,"la2":30.254,"lo1":-89.0895,"lo2":-89.0443,"dy":0.0025,"dx":0.0025,"nx":19,"ny":19,"refTime":"2026-04-03T03:00:00:Z","depth":0,"parameterNumber":3,"parameterNumberName":"V-component_of_WINDS"},"data":[0,0,0,3.3215,3.3217,3.3314,3.3315,3.3439,3.344,0,0,0,0,0,0,0,0,0,0,0,3.3186,3.3187,3.3214,3.3217,3.3314,3.3315,3.3439,3.344,0,0,0,0,0,0,0,0,0,0,0,3.3186,3.3187,3.3188,3.3217,3.3314,3.3315,3.3438,3.3365,0,0,0,0,0,0,0,0,0,0,3.327,3.3244,3.3187,3.3188,3.3218,3.3314,3.3315,3.3361,3.3369,3.3395,0,3.3418,0,3.3431,3.3448,3.3449,0,0,0,3.3216,3.3238,3.3264,3.3188,3.3219,3.3314,3.327,3.3366,3.3375,3.3406,3.342,3.3425,3.3433,3.3449,3.345,3.3605,3.3606,0,0,3.3211,3.3203,3.3258,3.327,3.3256,3.3267,3.3273,3.3371,3.3386,3.3421,3.3428,3.3436,3.345,3.3451,3.3604,3.3605,0,0,0,3.3196,3.32,3.3224,3.3265,3.3283,3.327,3.3277,3.3382,3.339,3.3429,3.3437,3.3451,3.3452,3.3603,3.3604,3.3637,0,0,0,3.3193,3.3191,3.3221,3.3218,3.3281,3.3333,3.3285,3.3383,3.3395,3.3436,3.3451,3.3453,3.3602,3.3604,3.3635,3.3653,0,0,0,3.318,3.319,3.3204,3.3217,3.3259,3.3332,3.3346,3.3386,3.34,3.3449,3.3454,3.3602,3.3604,3.3632,3.365,3.3694,0,0,0,3.3163,3.3229,3.3204,3.3281,3.3258,3.3352,3.3346,3.3415,3.3461,3.3451,3.3603,3.3604,3.3631,3.3647,3.3692,3.3731,3.3747,0,0,3.3242,3.3238,3.3284,3.3265,3.3362,3.3338,3.3439,3.3486,3.3496,3.3568,3.3572,3.3635,3.3649,3.3694,3.3835,3.3848,0,0,0,3.3307,3.334,3.3367,3.3412,3.3452,3.3489,3.3522,3.354,3.3602,3.3532,3.3663,3.3672,3.3698,3.3717,3.3728,3.3752,3.3613,3.3612,3.3612,3.3407,3.342,3.3498,3.3523,3.3566,3.3602,3.3639,3.367,3.3666,3.3697,3.3719,3.3803,3.3826,3.3834,3.3858,3.374,3.374,3.374,3.374,3.3525,3.3575,3.3573,3.3648,3.3661,3.3724,3.3762,3.3758,3.3819,3.3787,3.3811,3.3776,3.3847,3.3869,3.3743,3.3742,3.3742,3.3742,3.3742,3.3593,3.3619,3.3642,3.3712,3.3764,3.3786,3.3846,3.3854,3.3862,3.3886,3.3911,3.391,3.3912,3.3897,3.3897,3.3898,3.3898,3.3898,3.3898,3.3654,3.368,3.373,3.3781,3.3813,3.3856,3.3895,3.3927,3.3964,3.3965,3.3965,3.3961,3.3852,3.3825,3.3903,3.3902,3.3902,3.3901,3.3901,3.377,3.3747,3.3824,3.3856,3.3919,3.3971,3.3983,3.4047,3.4074,3.4104,3.4095,3.4012,3.4008,3.4,3.3978,3.4091,3.4091,3.4091,3.4091,3.3828,3.3828,3.3911,3.3963,3.4015,3.4034,3.4122,3.4155,3.4184,3.4202,3.4187,3.4158,3.4149,3.415,3.4139,3.4118,3.4265,3.4265,3.4265,3.3901,3.3907,3.398,3.4011,3.4062,3.4105,3.4189,3.4249,3.4276,3.4272,3.4217,3.4209,3.4163,3.4147,3.414,3.4122,3.4085,0,0]}]]